Denver Centennial, CO

12:25 AM MDT on May 27, 2018 (GMT -0600)
Centennial

Weather History for KAPA - May, 2007

Change the Weather History Date:

Saturday, May 12, 2007

  Actual Average Record
Temperature  
Mean Temperature 67 °F -  
Max Temperature 81 °F 66 °F 81 °F (2007)
Min Temperature 55 °F 39 °F 27 °F (1999)
Cooling Degree Days 2    
Growing Degree Days 17 (Base 50)    
Moisture  
Dew Point 37 °F    
Average Humidity 34    
Maximum Humidity 51    
Minimum Humidity 20    
Precipitation  
Precipitation 0.00 in - - ()
Sea Level Pressure  
Sea Level Pressure 30.02 in    
Wind  
Wind Speed 11 mph (South)    
Max Wind Speed 26 mph    
Max Gust Speed 40 mph    
Visibility 10 miles    
Events Rain , Thunderstorm    
Averages and records for this station are not official NWS values.
T = Trace of Precipitation, MM = Missing Value Source: NWS Daily Summary

Daily Weather History Graph

Daily Weather History Graph

Search for Another Location

Airport or City:

Astronomy

May. 12, 2007 Rise Set
Actual Time 5:48 AM MDT 8:03 PM MDT
Civil Twilight 5:18 AM MDT 8:33 PM MDT
Nautical Twilight 4:41 AM MDT 9:11 PM MDT
Astronomical Twilight 4:00 AM MDT 9:51 PM MDT
Moon 3:13 AM MDT (5/12) 3:24 PM MDT (5/12)
Length of Visible Light 15h 15m
Length of Day
14h 15m
Waning Crescent, 23% of the Moon is Illuminated
May 12
Waning Crescent
May 16
New
May 23
First Quarter
May 31
Full
Jun 8
Last Quarter

Hourly Weather History & Observations

Time (MDT) Temp. Dew Point Humidity Pressure Visibility Wind Dir Wind Speed Gust Speed Precip Events Conditions
12:53 AM 60.1 °F 37.0 °F 42% 30.04 in 10.0 mi South 11.5 mph - N/A   Partly Cloudy
1:53 AM 59.0 °F 37.0 °F 44% 30.04 in 10.0 mi South 11.5 mph - N/A   Partly Cloudy
2:53 AM 59.0 °F 36.0 °F 42% 30.02 in 10.0 mi SSE 11.5 mph - N/A   Partly Cloudy
3:53 AM 57.0 °F 36.0 °F 45% 30.02 in 10.0 mi SSE 9.2 mph - N/A   Partly Cloudy
4:53 AM 57.0 °F 34.0 °F 42% 30.02 in 10.0 mi SE 9.2 mph - N/A   Partly Cloudy
5:53 AM 57.0 °F 32.0 °F 39% 30.02 in 10.0 mi South 10.4 mph - N/A   Partly Cloudy
6:53 AM 55.9 °F 37.9 °F 51% 30.04 in 10.0 mi South 8.1 mph - N/A   Scattered Clouds
7:53 AM 64.9 °F 42.1 °F 43% 30.04 in 10.0 mi South 5.8 mph - N/A   Scattered Clouds
8:53 AM 70.0 °F 37.9 °F 31% 30.04 in 10.0 mi SW 9.2 mph - N/A   Scattered Clouds
9:53 AM 73.9 °F 37.9 °F 27% 30.02 in 10.0 mi SW 10.4 mph - N/A   Scattered Clouds
10:53 AM 78.1 °F 37.9 °F 24% 30.00 in 10.0 mi South 5.8 mph - N/A   Scattered Clouds
11:53 AM 79.0 °F 34.0 °F 20% 29.98 in 10.0 mi South 4.6 mph - N/A   Scattered Clouds
12:53 PM 79.0 °F 35.1 °F 20% 29.96 in 10.0 mi SE 6.9 mph - N/A   Scattered Clouds
1:53 PM 75.9 °F 37.9 °F 25% 29.96 in 10.0 mi SSE 15.0 mph - N/A   Mostly Cloudy
2:53 PM 73.0 °F 32.0 °F 22% 29.99 in 10.0 mi NW 19.6 mph 26.5 mph N/A   Mostly Cloudy
3:04 PM 71.6 °F 35.6 °F 27% 30.17 in 10.0 mi NNW 23.0 mph 29.9 mph N/A Thunderstorm Thunderstorm
3:53 PM 73.0 °F 36.0 °F 26% 30.01 in 10.0 mi ESE 9.2 mph 20.7 mph 0.00 in Rain , Thunderstorm Light Thunderstorms and Rain
4:15 PM 71.6 °F 35.6 °F 27% 30.17 in 10.0 mi SSE 18.4 mph 24.2 mph 0.00 in   Mostly Cloudy
4:53 PM 69.1 °F 39.9 °F 35% 30.02 in 10.0 mi South 26.5 mph 40.3 mph 0.00 in Rain Light Rain
5:53 PM 72.0 °F 39.0 °F 30% 29.99 in 10.0 mi South 20.7 mph 27.6 mph 0.00 in   Mostly Cloudy
6:53 PM 68.0 °F 36.0 °F 31% 30.00 in 10.0 mi SSE 17.3 mph 25.3 mph N/A   Mostly Cloudy
7:53 PM 68.0 °F 35.1 °F 30% 29.96 in 10.0 mi SSE 15.0 mph 20.7 mph N/A   Mostly Cloudy
8:53 PM 64.0 °F 39.0 °F 40% 29.98 in 10.0 mi South 12.7 mph - N/A   Mostly Cloudy
9:53 PM 63.0 °F 39.9 °F 43% 29.99 in 10.0 mi South 5.8 mph - N/A   Mostly Cloudy
10:53 PM 60.1 °F 37.9 °F 44% 29.97 in 10.0 mi SSE 9.2 mph - N/A   Scattered Clouds
11:53 PM 59.0 °F 35.1 °F 41% 29.97 in 10.0 mi Calm Calm - N/A   Scattered Clouds